Location: Staunton
(38.1490°N, 79.0720°W)
Time: 04:40:45
(UTC-05:00)

ISS - Pass Details

Date: 19 January 2019
Orbit: 404 x 407 km, 51.6° (Epoch: 16 January)

Event Time Altitude Azimuth Distance (km) Brightness Sun altitude
Rises 18:57:36 0° 196° (SSW) 2,306 0.4 -18.1°
Reaches altitude 10° 19:00:04 10° 177° (S) 1,452 -0.9 -18.6°
Enters shadow 19:01:06 15° 161° (SSE) 1,190 -1.6 -18.8°
